When you browse on this site, cookies collect data to enhance your experience and personalize the content and advertising you see.
Visit our Privacy Policy to learn more. By continuing to use the site, you agree to this use of cookies and data.

Hourly Weather Newport

Today, 15 August, Saturday

Time Temperature Precipitation Wind Pressure Humidity
00:00 +20°C° 0 mm 1 mps 757 mmHg 86%
01:00 +20°C° 0 mm 1 mps 757 mmHg 87%
02:00 +20°C° 0 mm 1 mps 757 mmHg 88%
03:00 +20°C° 0 mm 1 mps 756 mmHg 89%
04:00 +20°C° 0 mm 1 mps 757 mmHg 89%
05:00 +20°C° 0 mm 1 mps 757 mmHg 90%
06:00 +20°C° 0 mm 1 mps 757 mmHg 89%
07:00 +20°C° 0 mm 1 mps 757 mmHg 88%
08:00 +20°C° 0 mm 1 mps 757 mmHg 86%
09:00 +21°C° 0 mm 1 mps 758 mmHg 85%
10:00 +21°C° 0 mm 1 mps 757 mmHg 84%
11:00 +22°C° 0 mm 1 mps 757 mmHg 82%
12:00 +22°C° 0 mm 1 mps 757 mmHg 81%
13:00 +22°C° 0 mm 1 mps 757 mmHg 81%
14:00 +22°C° 0 mm 1 mps 757 mmHg 80%
15:00 +23°C° 0 mm 2 mps 757 mmHg 80%
16:00 +23°C° 0.2 mm 2 mps 757 mmHg 81%
17:00 +21°C° 0.2 mm 2 mps 756 mmHg 83%
18:00 +21°C° 0.2 mm 2 mps 756 mmHg 84%
19:00 +21°C° 0.1 mm 2 mps 756 mmHg 87%
20:00 +20°C° 0.1 mm 2 mps 756 mmHg 90%
21:00 +19°C° 0.1 mm 2 mps 756 mmHg 93%
22:00 +19°C° 0 mm 2 mps 756 mmHg 94%
23:00 +18°C° 0 mm 2 mps 756 mmHg 95%

Tomorrow, 16 August, Sunday

Time Temperature Precipitation Wind Pressure Humidity
00:00 +18°C° 0 mm 2 mps 755 mmHg 96%
01:00 +18°C° 0 mm 2 mps 755 mmHg 96%
02:00 +18°C° 0 mm 2 mps 755 mmHg 96%
03:00 +18°C° 0 mm 2 mps 754 mmHg 96%
04:00 +18°C° 0.2 mm 2 mps 754 mmHg 96%
05:00 +18°C° 0.2 mm 2 mps 754 mmHg 96%
06:00 +18°C° 0.2 mm 2 mps 754 mmHg 96%
07:00 +19°C° 0.2 mm 2 mps 754 mmHg 92%
08:00 +20°C° 0.2 mm 2 mps 754 mmHg 88%
09:00 +21°C° 0.2 mm 2 mps 754 mmHg 85%
10:00 +21°C° 0.7 mm 3 mps 754 mmHg 83%
11:00 +21°C° 0.7 mm 3 mps 754 mmHg 82%
12:00 +21°C° 0.7 mm 3 mps 753 mmHg 80%
13:00 +20°C° 0.9 mm 3 mps 753 mmHg 83%
14:00 +19°C° 0.9 mm 3 mps 753 mmHg 86%
15:00 +18°C° 0.9 mm 3 mps 752 mmHg 88%
16:00 +18°C° 0.2 mm 3 mps 752 mmHg 88%
17:00 +18°C° 0.2 mm 3 mps 752 mmHg 87%
18:00 +18°C° 0.2 mm 3 mps 752 mmHg 86%
19:00 +17°C° 0 mm 2 mps 751 mmHg 87%
20:00 +16°C° 0 mm 2 mps 751 mmHg 89%
21:00 +16°C° 0 mm 1 mps 751 mmHg 91%
22:00 +16°C° 0 mm 2 mps 751 mmHg 91%
23:00 +16°C° 0 mm 2 mps 751 mmHg 91%

Day after tomorrow, 17 August, Monday

Time Temperature Precipitation Wind Pressure Humidity
00:00 +16°C° 0 mm 2 mps 751 mmHg 91%
01:00 +16°C° 0.3 mm 3 mps 751 mmHg 91%
02:00 +15°C° 0.3 mm 5 mps 750 mmHg 91%
03:00 +15°C° 0.3 mm 6 mps 750 mmHg 92%
04:00 +15°C° 0.3 mm 6 mps 750 mmHg 91%
05:00 +16°C° 0.3 mm 6 mps 750 mmHg 90%
06:00 +16°C° 0.3 mm 6 mps 750 mmHg 89%
07:00 +16°C° 0.9 mm 7 mps 750 mmHg 89%
08:00 +16°C° 0.9 mm 8 mps 750 mmHg 89%
09:00 +16°C° 0.9 mm 9 mps 750 mmHg 89%
10:00 +16°C° 0.8 mm 9 mps 750 mmHg 89%
11:00 +17°C° 0.8 mm 8 mps 750 mmHg 89%
12:00 +17°C° 0.8 mm 8 mps 750 mmHg 89%
13:00 +18°C° 0.2 mm 8 mps 750 mmHg 86%
14:00 +19°C° 0.2 mm 9 mps 750 mmHg 83%
15:00 +19°C° 0.2 mm 9 mps 750 mmHg 80%
16:00 +20°C° 0.1 mm 8 mps 750 mmHg 81%
17:00 +18°C° 0.1 mm 8 mps 750 mmHg 82%
18:00 +18°C° 0.1 mm 7 mps 750 mmHg 83%
19:00 +17°C° 0.1 mm 7 mps 750 mmHg 85%
20:00 +17°C° 0.1 mm 7 mps 751 mmHg 88%
21:00 +16°C° 0.1 mm 6 mps 751 mmHg 90%
22:00 +16°C° 0 mm 6 mps 751 mmHg 91%
23:00 +16°C° 0 mm 6 mps 751 mmHg 91%

18 August, Tuesday

Time Temperature Precipitation Wind Pressure Humidity
00:00 +16°C° 0 mm 6 mps 751 mmHg 92%
01:00 +15°C° 0.1 mm 6 mps 751 mmHg 93%
02:00 +15°C° 0.1 mm 6 mps 751 mmHg 93%
03:00 +15°C° 0.1 mm 6 mps 751 mmHg 94%
04:00 +15°C° 0.1 mm 6 mps 751 mmHg 93%
05:00 +16°C° 0.1 mm 6 mps 752 mmHg 92%
06:00 +16°C° 0.1 mm 6 mps 752 mmHg 91%
07:00 +17°C° 0 mm 6 mps 752 mmHg 87%
08:00 +17°C° 0 mm 7 mps 752 mmHg 84%
09:00 +18°C° 0 mm 7 mps 752 mmHg 81%
10:00 +20°C° 0.1 mm 7 mps 752 mmHg 79%
11:00 +21°C° 0.1 mm 8 mps 753 mmHg 77%
12:00 +21°C° 0.1 mm 9 mps 753 mmHg 75%
13:00 +21°C° 0.5 mm 9 mps 753 mmHg 76%
14:00 +21°C° 0.5 mm 9 mps 753 mmHg 76%
15:00 +21°C° 0.5 mm 9 mps 753 mmHg 77%
16:00 +21°C° 0.2 mm 8 mps 753 mmHg 79%
17:00 +20°C° 0.2 mm 8 mps 753 mmHg 81%
18:00 +20°C° 0.2 mm 7 mps 753 mmHg 83%
19:00 +19°C° 0 mm 6 mps 753 mmHg 85%
20:00 +17°C° 0 mm 6 mps 754 mmHg 87%
21:00 +15°C° 0 mm 5 mps 754 mmHg 90%
22:00 +15°C° 0 mm 5 mps 754 mmHg 90%
23:00 +15°C° 0 mm 5 mps 754 mmHg 90%

19 August, Wednesday

Time Temperature Precipitation Wind Pressure Humidity
00:00 +15°C° 0 mm 5 mps 754 mmHg 91%
01:00 +14°C° 0 mm 4 mps 754 mmHg 91%
02:00 +14°C° 0 mm 4 mps 754 mmHg 92%
03:00 +14°C° 0 mm 4 mps 753 mmHg 92%
04:00 +14°C° 0 mm 4 mps 753 mmHg 93%
05:00 +15°C° 0 mm 4 mps 753 mmHg 93%
06:00 +15°C° 0 mm 4 mps 753 mmHg 94%
07:00 +17°C° 0 mm 4 mps 753 mmHg 90%
08:00 +18°C° 0 mm 4 mps 753 mmHg 86%
09:00 +19°C° 0 mm 5 mps 753 mmHg 82%
10:00 +20°C° 0 mm 5 mps 752 mmHg 80%
11:00 +20°C° 0 mm 5 mps 752 mmHg 78%
12:00 +20°C° 0 mm 5 mps 752 mmHg 77%
13:00 +20°C° 0 mm 5 mps 751 mmHg 75%
14:00 +20°C° 0 mm 5 mps 751 mmHg 74%
15:00 +21°C° 0 mm 5 mps 750 mmHg 72%
16:00 +20°C° 0.1 mm 5 mps 750 mmHg 77%
17:00 +19°C° 0.1 mm 5 mps 749 mmHg 81%
18:00 +19°C° 0.1 mm 6 mps 748 mmHg 86%
19:00 +17°C° 2.2 mm 7 mps 748 mmHg 88%
20:00 +17°C° 2.2 mm 8 mps 748 mmHg 91%
21:00 +17°C° 2.2 mm 10 mps 747 mmHg 94%
22:00 +17°C° 1 mm 10 mps 747 mmHg 94%
23:00 +18°C° 1 mm 10 mps 746 mmHg 95%

20 August, Thursday

Time Temperature Precipitation Wind Pressure Humidity
00:00 +18°C° 1 mm 11 mps 746 mmHg 95%
01:00 +18°C° 0.2 mm 10 mps 745 mmHg 94%
02:00 +19°C° 0.2 mm 9 mps 745 mmHg 94%
03:00 +19°C° 0.2 mm 9 mps 745 mmHg 93%
04:00 +18°C° 0 mm 8 mps 746 mmHg 92%
05:00 +17°C° 0 mm 7 mps 746 mmHg 90%
06:00 +16°C° 0 mm 7 mps 747 mmHg 88%
07:00 +17°C° 0 mm 6 mps 747 mmHg 82%
08:00 +17°C° 0 mm 6 mps 748 mmHg 76%
09:00 +19°C° 0 mm 6 mps 749 mmHg 69%
10:00 +19°C° 0 mm 6 mps 749 mmHg 68%
11:00 +20°C° 0 mm 6 mps 749 mmHg 66%
12:00 +20°C° 0 mm 6 mps 749 mmHg 64%
13:00 +20°C° 0 mm 6 mps 749 mmHg 64%
14:00 +20°C° 0 mm 6 mps 748 mmHg 63%
15:00 +20°C° 0 mm 6 mps 748 mmHg 63%
16:00 +20°C° 0 mm 6 mps 748 mmHg 66%
17:00 +19°C° 0 mm 6 mps 748 mmHg 69%
18:00 +19°C° 0 mm 5 mps 748 mmHg 73%
19:00 +17°C° 0 mm 5 mps 748 mmHg 77%
20:00 +17°C° 0 mm 5 mps 747 mmHg 81%
21:00 +16°C° 0 mm 5 mps 747 mmHg 86%
22:00 +16°C° 0 mm 6 mps 747 mmHg 84%
23:00 +16°C° 0 mm 8 mps 747 mmHg 83%
Show more